TimeCDT,TemperatureF,Dew PointF,Humidity,Sea Level PressureIn,VisibilityMPH,Wind Direction,Wind SpeedMPH,Gust SpeedMPH,PrecipitationIn,Events,Conditions,WindDirDegrees,DateUTC
12:15 AM,26.6,26.6,100,30.39,9.0,NNW,6.9,-,N/A,,Overcast,330,2012-10-06 05:15:00
12:55 AM,28.4,28.4,100,30.39,5.0,NW,6.9,-,N/A,Snow,Light Snow,320,2012-10-06 05:55:00
1:15 AM,26.6,26.6,100,30.39,10.0,NW,6.9,-,N/A,Snow,Light Snow,320,2012-10-06 06:15:00
1:35 AM,28.4,28.4,100,30.39,8.0,NW,8.1,-,N/A,Snow,Light Snow,320,2012-10-06 06:35:00
1:55 AM,28.4,28.4,100,30.39,10.0,WNW,6.9,-,N/A,,Overcast,300,2012-10-06 06:55:00
2:15 AM,28.4,28.4,100,30.39,10.0,WNW,6.9,-,N/A,,Overcast,300,2012-10-06 07:15:00
2:35 AM,28.4,28.4,100,30.39,10.0,West,6.9,-,N/A,,Overcast,270,2012-10-06 07:35:00
2:55 AM,26.6,26.6,100,30.39,10.0,WNW,6.9,-,N/A,,Overcast,290,2012-10-06 07:55:00
3:15 AM,26.6,26.6,100,30.39,10.0,West,8.1,-,N/A,,Overcast,280,2012-10-06 08:15:00
3:35 AM,28.4,28.4,100,30.39,10.0,West,8.1,-,N/A,,Overcast,280,2012-10-06 08:35:00
3:55 AM,28.4,28.4,100,30.38,10.0,WNW,9.2,-,N/A,,Overcast,290,2012-10-06 08:55:00
4:15 AM,28.4,28.4,100,30.38,10.0,WNW,9.2,-,N/A,,Overcast,290,2012-10-06 09:15:00
4:35 AM,28.4,28.4,100,30.38,10.0,WNW,9.2,-,N/A,,Overcast,290,2012-10-06 09:35:00
4:55 AM,28.4,28.4,100,30.38,10.0,West,8.1,-,N/A,,Overcast,280,2012-10-06 09:55:00
5:15 AM,28.4,28.4,100,30.38,10.0,WNW,6.9,-,N/A,,Overcast,290,2012-10-06 10:15:00
5:35 AM,28.4,28.4,100,30.38,10.0,WNW,6.9,-,N/A,,Overcast,300,2012-10-06 10:35:00
5:55 AM,28.4,28.4,100,30.38,10.0,WNW,6.9,-,N/A,,Overcast,300,2012-10-06 10:55:00
6:15 AM,28.4,28.4,100,30.38,10.0,WNW,6.9,-,N/A,,Overcast,300,2012-10-06 11:15:00
6:35 AM,28.4,28.4,100,30.39,10.0,West,5.8,-,N/A,,Overcast,280,2012-10-06 11:35:00
6:55 AM,26.6,26.6,100,30.39,10.0,West,5.8,-,N/A,,Overcast,270,2012-10-06 11:55:00
7:15 AM,26.6,26.6,100,30.39,10.0,West,6.9,-,N/A,,Overcast,270,2012-10-06 12:15:00
7:35 AM,26.6,26.6,100,30.39,10.0,West,8.1,-,N/A,,Mostly Cloudy,280,2012-10-06 12:35:00
7:55 AM,24.8,24.8,100,30.40,10.0,West,6.9,-,N/A,,Scattered Clouds,280,2012-10-06 12:55:00
8:15 AM,24.8,24.8,100,30.41,10.0,West,4.6,-,N/A,,Scattered Clouds,280,2012-10-06 13:15:00
8:35 AM,24.8,24.8,100,30.41,10.0,West,5.8,-,N/A,,Partly Cloudy,270,2012-10-06 13:35:00
9:15 AM,28.4,28.4,100,30.41,10.0,West,6.9,-,N/A,,Clear,280,2012-10-06 14:15:00
9:35 AM,32.0,28.4,87,30.41,10.0,WNW,9.2,-,N/A,,Clear,300,2012-10-06 14:35:00
9:55 AM,32.0,28.4,87,30.42,10.0,WNW,11.5,-,N/A,,Clear,290,2012-10-06 14:55:00
10:15 AM,32.0,28.4,87,30.42,10.0,WNW,11.5,-,N/A,,Clear,300,2012-10-06 15:15:00
10:35 AM,35.6,28.4,75,30.42,10.0,WNW,11.5,-,N/A,,Clear,300,2012-10-06 15:35:00
10:55 AM,35.6,28.4,75,30.41,10.0,WNW,11.5,-,N/A,,Clear,300,2012-10-06 15:55:00
11:15 AM,37.4,28.4,70,30.41,10.0,NW,8.1,-,N/A,,Clear,310,2012-10-06 16:15:00
11:35 AM,37.4,28.4,70,30.40,10.0,NW,5.8,-,N/A,,Clear,310,2012-10-06 16:35:00
11:55 AM,37.4,24.8,60,30.40,10.0,West,9.2,-,N/A,,Scattered Clouds,280,2012-10-06 16:55:00
12:15 PM,39.2,26.6,61,30.39,10.0,WNW,9.2,-,N/A,,Partly Cloudy,300,2012-10-06 17:15:00
12:35 PM,39.2,24.8,56,30.39,10.0,WNW,10.4,-,N/A,,Scattered Clouds,290,2012-10-06 17:35:00
12:55 PM,41.0,23.0,49,30.38,10.0,WNW,9.2,-,N/A,,Scattered Clouds,290,2012-10-06 17:55:00
1:15 PM,41.0,23.0,49,30.37,10.0,WNW,3.5,-,N/A,,Partly Cloudy,300,2012-10-06 18:15:00
1:35 PM,41.0,19.4,42,30.36,10.0,WSW,5.8,-,N/A,,Clear,240,2012-10-06 18:35:00
1:55 PM,42.8,17.6,36,30.34,10.0,WSW,10.4,-,N/A,,Clear,250,2012-10-06 18:55:00
2:15 PM,41.0,17.6,39,30.33,10.0,WSW,9.2,-,N/A,,Clear,250,2012-10-06 19:15:00
2:35 PM,44.6,17.6,34,30.32,10.0,West,5.8,-,N/A,,Clear,260,2012-10-06 19:35:00
2:55 PM,44.6,15.8,31,30.31,10.0,West,9.2,16.1,N/A,,Clear,260,2012-10-06 19:55:00
3:15 PM,44.6,15.8,31,30.30,10.0,West,6.9,-,N/A,,Clear,270,2012-10-06 20:15:00
3:35 PM,44.6,15.8,31,30.29,10.0,WNW,8.1,-,N/A,,Clear,290,2012-10-06 20:35:00
3:55 PM,46.4,17.6,32,30.28,10.0,WSW,16.1,19.6,N/A,,Clear,250,2012-10-06 20:55:00
4:15 PM,46.4,15.8,29,30.27,10.0,West,11.5,16.1,N/A,,Clear,270,2012-10-06 21:15:00
4:35 PM,46.4,15.8,29,30.26,10.0,West,12.7,19.6,N/A,,Clear,270,2012-10-06 21:35:00
4:55 PM,46.4,15.8,29,30.26,10.0,WNW,8.1,-,N/A,,Clear,290,2012-10-06 21:55:00
5:15 PM,46.4,15.8,29,30.25,10.0,WSW,11.5,18.4,N/A,,Clear,250,2012-10-06 22:15:00
5:35 PM,46.4,14.0,27,30.24,10.0,West,13.8,18.4,N/A,,Clear,270,2012-10-06 22:35:00
5:55 PM,44.6,12.2,27,30.24,10.0,West,11.5,-,N/A,,Clear,280,2012-10-06 22:55:00
6:15 PM,44.6,12.2,27,30.23,10.0,West,12.7,18.4,N/A,,Clear,270,2012-10-06 23:15:00
6:35 PM,44.6,14.0,29,30.23,10.0,West,8.1,-,N/A,,Clear,280,2012-10-06 23:35:00
6:55 PM,39.2,12.2,33,30.22,10.0,West,6.9,-,N/A,,Clear,270,2012-10-06 23:55:00
7:15 PM,35.6,12.2,38,30.22,10.0,West,6.9,-,N/A,,Clear,280,2012-10-07 00:15:00
7:35 PM,35.6,10.4,35,30.21,10.0,West,5.8,-,N/A,,Clear,260,2012-10-07 00:35:00
7:55 PM,35.6,10.4,35,30.21,10.0,WSW,4.6,-,N/A,,Clear,250,2012-10-07 00:55:00
8:15 PM,35.6,10.4,35,30.21,10.0,WSW,6.9,-,N/A,,Clear,250,2012-10-07 01:15:00
8:35 PM,33.8,10.4,38,30.20,10.0,WSW,6.9,-,N/A,,Clear,250,2012-10-07 01:35:00
8:55 PM,32.0,12.2,44,30.20,10.0,WSW,5.8,-,N/A,,Clear,250,2012-10-07 01:55:00
9:15 PM,32.0,12.2,44,30.20,10.0,WSW,5.8,-,N/A,,Clear,240,2012-10-07 02:15:00
9:35 PM,32.0,12.2,44,30.19,10.0,WSW,6.9,-,N/A,,Clear,240,2012-10-07 02:35:00
9:55 PM,32.0,14.0,48,30.19,10.0,SW,6.9,-,N/A,,Clear,230,2012-10-07 02:55:00
10:15 PM,33.8,12.2,41,30.18,10.0,SW,8.1,-,N/A,,Clear,230,2012-10-07 03:15:00
10:35 PM,32.0,12.2,44,30.17,10.0,SW,8.1,-,N/A,,Clear,230,2012-10-07 03:35:00
10:55 PM,32.0,14.0,48,30.17,10.0,SW,8.1,-,N/A,,Clear,220,2012-10-07 03:55:00
11:35 PM,32.0,14.0,48,30.15,10.0,SW,9.2,-,N/A,,Clear,220,2012-10-07 04:35:00
11:55 PM,32.0,14.0,48,30.15,10.0,SW,9.2,-,N/A,,Clear,220,2012-10-07 04:55:00